Weather History for Staunton, VA

Change the Weather History Date:

Thursday, July 3, 2014

  Actual Average Record
Temperature  
Mean Temperature 74 °F -  
Max Temperature 82 °F 85 °F 96 °F (2002)
Min Temperature 65 °F 62 °F 51 °F (2010)
Cooling Degree Days 8    
Growing Degree Days 24 (Base 50)    
Moisture  
Dew Point 67 °F    
Average Humidity 87    
Maximum Humidity 96    
Minimum Humidity 59    
Precipitation  
Precipitation 0.16 in - - ()
Sea Level Pressure  
Sea Level Pressure 30.02 in    
Wind  
Wind Speed 1 mph (SSE)    
Max Wind Speed 10 mph    
Max Gust Speed 16 mph    
Visibility 7 miles    
Events Fog , Rain , Thunderstorm    
Averages and records for this station are not official NWS values.
T = Trace of Precipitation, MM = Missing Value Source: NWS Daily Summary

Daily Weather History Graph

Daily Weather History Graph

Search for Another Location

Airport:

Trip Planner

Search our weather history database for the weather conditions in past years. The results will help you decide how hot, cold, wet, or windy it might be!

Date:

Astronomy

Jul. 03, 2014 Rise Set
Actual Time 5:56 AM EDT 8:42 PM EDT
Civil Twilight 5:25 AM EDT 9:14 PM EDT
Nautical Twilight 4:46 AM EDT 9:53 PM EDT
Astronomical Twilight 4:01 AM EDT 10:37 PM EDT
Moon 11:49 AM EDT (7/3) No Moon Set
Length of Visible Light 15h 48m
Length of Day
14h 45m
Waxing Crescent, 33% of the Moon is Illuminated
Jul 3
Waxing Crescent
Jul 5
First Quarter
Jul 12
Full
Jul 18
Last Quarter
Jul 26
New

Hourly Weather History & Observations

Time (EDT) Temp. Heat Index Dew Point Humidity Pressure Visibility Wind Dir Wind Speed Gust Speed Precip Events Conditions
12:15 AM 68.4 °F - 66.0 °F 92% 30.02 in 7.0 mi Calm Calm - N/A   Clear
12:35 AM 68.4 °F - 66.2 °F 93% 30.02 in 7.0 mi Calm Calm - N/A   Clear
12:55 AM 68.4 °F - 66.4 °F 93% 30.00 in 7.0 mi Calm Calm - N/A   Clear
1:15 AM 68.2 °F - 66.4 °F 94% 30.00 in 5.0 mi Calm Calm - N/A   Clear
1:35 AM 67.5 °F - 65.7 °F 94% 30.00 in 0.8 mi Calm Calm - N/A   Mostly Cloudy
1:55 AM 67.1 °F - 65.3 °F 94% 30.00 in 2.0 mi Calm Calm - N/A   Scattered Clouds
2:15 AM 67.3 °F - 65.7 °F 95% 30.00 in 10.0 mi Calm Calm - N/A   Clear
2:35 AM 66.7 °F - 64.9 °F 94% 30.00 in 7.0 mi Calm Calm - N/A   Clear
2:55 AM 67.1 °F - 65.3 °F 94% 30.00 in 10.0 mi Calm Calm - N/A   Mostly Cloudy
3:15 AM 67.3 °F - 65.3 °F 93% 30.00 in 10.0 mi Calm Calm - N/A   Scattered Clouds
3:35 AM 66.7 °F - 64.8 °F 93% 30.00 in 7.0 mi Calm Calm - N/A   Scattered Clouds
3:55 AM 66.0 °F - 64.2 °F 94% 30.00 in 5.0 mi Calm Calm - N/A   Scattered Clouds
4:15 AM 66.2 °F - 64.4 °F 94% 29.99 in 0.5 mi Calm Calm - N/A Fog Fog
4:35 AM 66.2 °F - 64.4 °F 94% 29.99 in 0.5 mi Calm Calm - N/A Fog Fog
4:55 AM 65.8 °F - 64.4 °F 95% 30.00 in 0.5 mi Calm Calm - N/A Fog Fog
5:15 AM 66.2 °F - 64.6 °F 94% 30.01 in 0.5 mi Calm Calm - N/A Fog Fog
5:35 AM 66.2 °F - 64.8 °F 95% 30.01 in 0.2 mi Calm Calm - N/A Fog Fog
5:55 AM 65.7 °F - 64.4 °F 96% 30.01 in 0.2 mi Calm Calm - N/A Fog Fog
6:15 AM 65.5 °F - 64.0 °F 95% 30.02 in 0.2 mi Calm Calm - N/A Fog Fog
6:35 AM 65.5 °F - 64.2 °F 96% 30.02 in 0.2 mi Calm Calm - N/A Fog Fog
6:55 AM 65.7 °F - 64.4 °F 96% 30.03 in 0.2 mi Calm Calm - 0.01 in Fog Fog
7:15 AM 65.8 °F - 64.4 °F 95% 30.03 in 0.8 mi Calm Calm - N/A   Overcast
7:35 AM 66.4 °F - 65.3 °F 96% 30.03 in 0.5 mi Calm Calm - N/A Fog Fog
7:55 AM 67.1 °F - 65.8 °F 96% 30.03 in 0.5 mi Calm Calm - N/A Fog Fog
8:15 AM 68.2 °F - 67.1 °F 96% 30.03 in 2.5 mi Calm Calm - N/A   Mostly Cloudy
8:35 AM 68.7 °F - 67.5 °F 96% 30.03 in 5.0 mi Calm Calm - N/A   Mostly Cloudy
8:55 AM 69.4 °F - 68.2 °F 96% 30.03 in 7.0 mi Calm Calm - N/A   Mostly Cloudy
9:15 AM 70.3 °F - 68.9 °F 95% 30.03 in 10.0 mi SE 3.5 mph - N/A   Mostly Cloudy
9:55 AM 74.5 °F - 67.8 °F 80% 30.03 in 10.0 mi Calm Calm - N/A   Scattered Clouds
10:15 AM 76.1 °F - 68.7 °F 78% 30.03 in 10.0 mi Calm Calm - N/A   Clear
10:35 AM 77.9 °F - 68.2 °F 72% 30.03 in 10.0 mi Calm Calm - N/A   Clear
10:55 AM 79.5 °F - 68.9 °F 70% 30.03 in 10.0 mi Calm Calm - N/A   Clear
11:15 AM 80.8 °F 83.3 °F 67.6 °F 64% 30.02 in 10.0 mi SSE 3.5 mph - N/A   Clear
11:35 AM 81.5 °F 83.9 °F 66.7 °F 61% 30.02 in 10.0 mi SE 3.5 mph - N/A   Scattered Clouds
11:55 AM 82.8 °F 85.3 °F 67.3 °F 59% 30.02 in 10.0 mi Calm Calm - N/A   Scattered Clouds
12:15 PM 81.9 °F 85.0 °F 68.5 °F 64% 30.02 in 10.0 mi SSE 6.9 mph - N/A Thunderstorm Thunderstorm
12:35 PM 77.5 °F - 67.1 °F 70% 30.01 in 10.0 mi SSE 8.1 mph 16.1 mph N/A   Overcast
12:55 PM 74.3 °F - 66.2 °F 76% 30.01 in 10.0 mi SE 9.2 mph - N/A Rain , Thunderstorm Light Thunderstorms and Rain
1:15 PM 73.4 °F - 67.5 °F 82% 29.99 in 10.0 mi SSE 10.4 mph - N/A   Mostly Cloudy
1:35 PM 73.9 °F - 67.3 °F 80% 29.99 in 10.0 mi SE 8.1 mph - N/A Thunderstorm Clear
1:55 PM 73.4 °F - 66.9 °F 80% 29.99 in 10.0 mi SSE 4.6 mph - N/A Thunderstorm Thunderstorm
2:15 PM 74.3 °F - 67.8 °F 80% 29.99 in 10.0 mi SSW 5.8 mph - N/A Rain , Thunderstorm Light Thunderstorms and Rain
2:35 PM 72.5 °F - 68.4 °F 87% 30.02 in 10.0 mi South 8.1 mph - N/A Rain , Thunderstorm Thunderstorms and Rain
2:55 PM 71.6 °F - 66.6 °F 84% 30.02 in 10.0 mi South 6.9 mph - 0.01 in Rain , Thunderstorm Light Thunderstorms and Rain
3:15 PM 71.6 °F - 67.3 °F 86% 30.00 in 10.0 mi South 5.8 mph - 0.02 in Rain Light Rain
3:35 PM 70.0 °F - 66.4 °F 88% 30.00 in 10.0 mi SSE 8.1 mph - 0.04 in Rain , Thunderstorm Light Thunderstorms and Rain
3:55 PM 69.8 °F - 65.7 °F 87% 29.99 in 10.0 mi SSE 5.8 mph - 0.06 in Rain Light Rain
4:15 PM 70.7 °F - 66.4 °F 86% 29.97 in 10.0 mi SSW 5.8 mph - N/A   Scattered Clouds
4:35 PM 71.8 °F - 67.3 °F 86% 29.97 in 10.0 mi SSW 5.8 mph - N/A   Clear
4:55 PM 72.7 °F - 67.3 °F 83% 29.97 in 10.0 mi South 4.6 mph - N/A   Clear
5:15 PM 73.8 °F - 67.1 °F 80% 29.98 in 10.0 mi WSW 6.9 mph - N/A   Clear
5:35 PM 73.6 °F - 67.1 °F 80% 29.99 in 10.0 mi Calm Calm - N/A   Clear
5:55 PM 73.6 °F - 67.5 °F 81% 30.01 in 10.0 mi Calm Calm - N/A   Clear
6:15 PM 73.9 °F - 67.8 °F 81% 30.01 in 10.0 mi Calm Calm - N/A   Scattered Clouds
6:35 PM 74.5 °F - 67.8 °F 80% 30.02 in 10.0 mi ENE 6.9 mph - N/A   Mostly Cloudy
6:55 PM 74.3 °F - 68.0 °F 81% 30.02 in 10.0 mi ENE 6.9 mph - N/A   Mostly Cloudy
7:15 PM 73.6 °F - 67.5 °F 81% 30.03 in 10.0 mi East 3.5 mph - N/A   Overcast
7:35 PM 72.9 °F - 67.8 °F 84% 30.04 in 10.0 mi SSE 4.6 mph - N/A Rain , Thunderstorm Light Thunderstorms and Rain
7:55 PM 71.8 °F - 68.0 °F 88% 30.04 in 5.0 mi Calm Calm - 0.05 in Rain Light Rain
8:15 PM 71.8 °F - 68.5 °F 89% 30.04 in 7.0 mi Calm Calm - 0.02 in Rain Light Rain
8:35 PM 70.9 °F - 68.2 °F 91% 30.04 in 4.0 mi Calm Calm - 0.02 in Rain Light Rain
8:55 PM 70.9 °F - 68.2 °F 91% 30.04 in 7.0 mi SSE 3.5 mph - 0.03 in   Light Drizzle
9:15 PM 70.7 °F - 68.2 °F 92% 30.05 in 7.0 mi Calm Calm - N/A   Light Drizzle
9:35 PM 70.9 °F - 68.5 °F 92% 30.05 in 7.0 mi Calm Calm - N/A   Overcast
9:55 PM 71.1 °F - 68.9 °F 93% 30.05 in 10.0 mi Calm Calm - N/A   Overcast
10:15 PM 71.2 °F - 68.9 °F 92% 30.05 in 10.0 mi North 3.5 mph - N/A   Overcast
10:35 PM 70.9 °F - 68.4 °F 92% 30.04 in 10.0 mi NNW 5.8 mph - N/A   Mostly Cloudy
10:55 PM 70.7 °F - 68.2 °F 92% 30.04 in 10.0 mi North 3.5 mph - N/A   Mostly Cloudy
11:15 PM 70.7 °F - 67.6 °F 90% 30.04 in 10.0 mi NNE 5.8 mph - N/A   Overcast
11:35 PM 70.7 °F - 66.4 °F 86% 30.05 in 10.0 mi North 3.5 mph - N/A   Overcast
11:55 PM 70.9 °F - 65.1 °F 82% 30.05 in 10.0 mi Calm Calm - N/A   Overcast